CHANG'E 5

导读

CHANG'E 5(嫦娥五号)是中国执行的探月工程三期任务探测器,也是中国航天迄今最复杂、难度最大的深空任务之一,完成中国“探月工程”规划“绕、落、回”三步走的收官一步,实现了中国首次月球无人采样返回。 它于2020年11月23日出征(实际发射时间为24日凌晨),最终成功携带月球样品返回地球,完成月球采样、月面起飞、月球轨道交会对接等多个重大突破,为深化月球成因演化研究奠定了坚实基础。

基本信息
目录编号:
47097
目录名称:
CHANG'E 5
国际标识:
2020-087A
轨道中心:
EARTH
卫星名称:
CHANG'E 5
卫星全名:
--
卫星状态:
在轨 (已飞行2059 天)
发射日期:
2020-11-23 UTC
国别 :
中国 (CN)
星等 :
--
轨道信息
数据来源 国际轨道数据
星历时间: 2024-02-22T22:37:35+0800
轨道信息已过期872天
半长轴: 350645.186km
偏心率: 0.3779204
轨道倾角: 30.765°
近地点辐角 349.885°
升交点赤经 10.766°
平近点角 126.626°
近地点: 211751.082km
远地点: 476783.02km
周期: 34439.874分钟
每日圈数: 0.041812
详细信息
使用方式:
暂无
2D轨道图
3D轨道图
轨道高度分析图
轨道倾角分析图
轨道综合分析图
查看轨道综合分析图